Terminal Aerodrome Forecast
Issued by NWS Chicago, IL

Home | Current Version | Previous Version | Graphics & Text | Print | Product List | Glossary On
Versions: 1 2 3 4 5 6 7 8 9 10 11 12 13 14 15 16 17 18 19 20 21 22 23 24 25 26 27 28 29 30 31 32
000
FTUS43 KLOT 271700
TAFRFD
TAF
KRFD 271730Z 2718/2818 31019G28KT P6SM VCSH BKN040
     FM280000 33014G20KT P6SM SCT025 BKN035
     FM280400 36012G18KT P6SM BKN020
     FM280800 34009KT P6SM SCT060
     FM281300 35013G19KT P6SM SCT040=

USA.gov is the U.S. government's official web portal to all federal, state and local government web resources and services.